Weather in Diadema

Brazil     23°41′20″S   46°37′32″W
temp.,
°C
wind,
m/s
gust,
m/s
humid.,
%
clouds,
%
prec.,
mm/h
press.,
hPa
HPBL,
m
21 april, wed
wed2100:00+15s379467 0.1 1018422
03:00+15s379090 0.2 1016579
06:00+15s269421 0.1 1017392
09:00+17s468371 0.3 1018702
12:00+21sse456826 0.3 10171067
15:00+20sse457018 0.5 1016986
18:00+17sse458691 0.1 1017543
21:00+16sse3791100 0.3 1018534
22 april, thu
thu2200:00+16sse359598 0.3 1018330
03:00+16sse3696100 0.7 1017449
06:00+15sse379689 0.3 1017469
09:00+17sse358540 0.4 1019586
12:00+19sse457241 0.4 1018954
15:00+19sse456848 0.6 10161063
18:00+16sse358624 0.1 1018480
21:00+15sse369341 0.2 1019376
23 april, fri
fri2300:00+14sse259588 0.1 1019295
03:00+14sse249114 0.3 1017243
06:00+13sse24920 0.0 1018147
09:00+17se22700 0.0 1019594
12:00+21sse22490 0.0 10171217
15:00+20sse43608 0.0 10151049
18:00+16sse458413 0.0 1015389
21:00+15se239239 0.0 1017222
24 april, sat
sat2400:00+15sse239083 0.0 1017288
03:00+14ene118839 0.0 1016234
06:00+13ene11910 0.0 101613
09:00+18ne11640 0.0 1017391
12:00+24nnw12400 0.0 10151051
15:00+25ssw13340 0.0 10121680
18:00+18sse34805 0.0 1014201
21:00+18ssw007917 0.0 101569
25 april, sun
sun2500:00+17sw1177100 0.0 101524
03:00+17nnw117517 0.0 101411
06:00+17ne117689 0.0 101419
09:00+20ene126197 0.0 1014283
12:00+24ne024599 0.0 10131130
15:00+24ssw3350100 0.2 1011972
18:00+19sse2285100 0.8 1012151
21:00+18s2386100 0.9 1014186